Simultaneous Nadir Overpasses (SNOs) Predictions

Prediction of SNOs between TERRA and METOP-C Satellite Orbit:

Table of predicted SNOs for the next 14.0 days since TLE Epoch: 6/29/2019
Index Date (TERRA) Time (TERRA) Lat,Lon (TERRA) SZA (TERRA ) Date (METOP-C) Time (METOP-C) Lat,Lon (METOP-C) SZA (METOP-C ) Distance(km) Time Diff (sec)
1 07/01/2019 15:13:46 -81.31, 178.84 118.97 07/01/2019 15:13:10 -81.30, 179.01 118.97 2.80 36
2 07/01/2019 16:03:12 81.31, -13.42 61.05 07/01/2019 16:03:50 81.31, -13.49 61.06 1.33 38
3 07/04/2019 10:48:02 -81.30,-114.88 118.79 07/04/2019 10:47:34 -81.30,-114.96 118.81 1.47 28
4 07/04/2019 11:37:28 81.30, 52.83 61.23 07/04/2019 11:38:13 81.31, 52.95 61.27 2.11 45
5 07/07/2019 06:22:18 -81.30, -48.33 118.52 07/07/2019 06:21:56 -81.30, -48.16 118.51 3.00 22
6 07/07/2019 07:11:44 81.31, 119.35 61.50 07/07/2019 07:12:36 81.31, 119.39 61.53 0.82 52
7 07/10/2019 01:56:34 -81.30, 18.09 118.21 07/10/2019 01:56:18 -81.30, 18.26 118.20 2.83 16
8 07/10/2019 02:46:00 81.30,-174.26 61.80 07/10/2019 02:46:58 81.31,-174.17 61.84 1.58 58
9 07/12/2019 21:30:52 -81.30, 84.40 117.87 07/12/2019 21:30:42 -81.30, 84.29 117.88 1.98 10




NCC Satellite Simultaneous Nadir Overpasses (SNOs) Prediction Service
